SCP
0 0 0 0 0 0 0 0 0 0 0 0 0 0 0 0 0 0 0 0 0 1 0 0 0 0 0 0 1 1 1 1 1 1 1 1 1 0 0 0 0 0 0
0 0 0 0 0 0 0 0 0 0 0 0 0 0 0 0 0 0 0 0 0 0 0 0 0 0 0 1 0 1 1 1 1 1 1 1 1 1 0 0 0 0 0
0 0 0 0 0 0 0 0 0 0 0 0 0 0 0 0 0 0 0 0 0 0 0 1 0 0 0 0 0 1 1 1 1 1 1 1 1 1 0 0 0 0 0
0 0 0 0 0 0 0 0 0 0 0 0 0 0 0 0 0 0 0 0 0 0 0 0 1 0 0 0 1 1 1 1 1 1 1 1 1 1 1 1 0 1 0
0 0 0 0 0 0 0 0 0 0 0 0 0 0 0 0 0 0 0 0 0 0 0 0 0 1 1 0 0 0 1 1 1 1 1 1 1 1 1 1 1 1 0
0 0 0 0 0 0 0 0 0 0 0 0 0 0 0 0 0 0 0 0 0 0 0 0 0 0 1 0 1 0 0 1 1 1 1 1 1 0 1 1 1 1 0
0 0 0 0 0 0 0 0 0 0 0 0 0 0 0 0 0 0 0 0 0 0 0 0 0 0 1 1 1 1 1 0 0 1 1 1 1 0 1 1 1 1 0
0 0 0 0 0 0 0 0 0 0 0 0 0 0 0 0 0 0 0 0 0 0 0 0 0 0 0 1 1 1 0 1 0 1 1 0 0 1 1 0 0 0 0
0 0 0 0 0 0 0 0 0 0 0 0 0 0 0 0 0 0 0 0 0 0 0 0 0 0 0 0 0 0 0 1 0 1 1 1 1 0 0 0 0 0 0
0 0 0 0 0 0 0 0 0 0 0 0 0 0 0 0 0 0 0 0 0 0 0 0 0 0 0 0 0 0 0 0 0 0 1 0 1 0 0 0 0 0 0
0 0 0 0 0 0 0 0 0 0 0 0 0 0 0 0 0 0 0 0 0 0 0 0 0 0 0 0 0 0 0 0 0 0 1 1 0 1 1 0 1 1 1
0 0 0 0 0 0 0 0 0 0 0 0 0 0 0 0 0 0 0 0 0 0 0 0 0 0 0 0 0 0 0 0 0 0 0 0 0 0 0 0 0 0 0
0 0 0 0 0 0 0 0 0 0 0 0 0 0 0 0 0 0 0 0 0 0 0 0 0 0 0 0 0 0 0 0 0 0 0 0 0 0 0 0 0 0 0
0 0 0 0 0 0 0 0 0 0 0 0 0 0 0 0 0 0 0 0 0 0 0 0 0 0 0 0 0 0 0 0 0 0 0 0 0 0 -0 0 0 0 0
0 0 0 0 0 0 0 0 0 0 0 0 0 0 0 0 0 0 0 0 0 0 0 0 0 0 0 0 0 0 0 0 0 0 0 0 0 0 0 0 0 0 0
0 0 0 0 0 0 0 0 0 0 0 0 0 0 0 0 0 0 0 0 0 0 0 0 -0 0 0 0 0 0 0 0 0 0 0 0 0 0 0 0 0 0 0
0 0 0 0 0 0 0 0 0 0 0 0 0 0 0 0 0 0 0 0 0 0 0 0 -0 -0 0 0 0 0 0 0 0 0 0 0 0 0 0 0 0 0 -0
0 0 0 0 0 0 0 0 0 0 0 0 0 0 0 0 0 0 0 0 0 0 0 0 0 0 0 0 0 0 0 0 0 0 0 0 0 0 0 0 0 0 0
0 0 0 0 0 0 0 0 0 0 0 0 0 -0 -0 0 0 0 0 -0 -0 -0 -0 -0 0 0 0 0 0 0 0 0 0 0 0 0 0 0 0 0 0 0 0
0 0 0 -0 -0 0 0 0 -0 0 0 0 0 -0 -0 -0 -0 0 0 -0 -0 -0 0 -0 0 0 0 0 0 0 0 0 0 0 0 0 0 0 0 0 0 0 0
0 0 0 -0 -0 -0 0 0 0 0 0 0 0 -0 -0 -0 -0 -0 0 0 0 0 0 0 0 0 0 0 0 0 0 0 0 0 0 0 0 0 0 0 0 0 0
0 0 0 -0 0 0 -0 0 -0 -0 0 0 0 -0 0 -0 0 0 0 0 0 0 0 0 0 0 0 0 0 0 0 0 0 0 0 0 0 0 0 0 0 0 0
-0 0 0 0 0 0 0 0 0 0 0 0 0 -0 0 0 0 0 0 0 0 0 0 0 0 0 0 0 0 0 0 0 0 -0 0 0 0 -0 0 -0 -0 -0 0
-0 0 0 0 0 0 0 0 0 0 0 0 0 0 0 0 0 0 -0 0 0 0 0 0 0 0 0 0 0 0 -0 0 0 0 -0 -0 0 -0 -0 -0 -0 -0 -0
-0 0 0 0 0 0 0 -0 0 0 0 0 0 0 0 0 0 0 0 0 0 0 0 0 0 0 0 0 0 0 0 0 0 0 -0 0 0 0 -0 -0 -0 -0 -0
-0 0 0 0 0 0 0 -0 0 0 0 0 0 0 0 0 -0 0 0 0 0 0 0 0 0 0 0 0 0 0 0 0 -0 0 0 0 0 -0 0 -0 -0 0 0
Wind_Speed_500mb
35 22 16 14 17 14 21 29 27 12 16 19 17 20 18 17 18 22 27 26 26 30 26 23 27 32 39 41 41 43 42 42 46 45 45 44 43 40 38 35 33 31 29
32 26 20 16 17 11 21 29 23 24 26 28 31 30 28 26 26 24 30 29 34 31 34 44 40 37 33 35 44 44 43 45 46 47 48 45 43 42 38 37 32 32 28
27 32 35 31 25 16 23 32 21 28 32 35 39 40 38 34 32 28 19 25 29 33 36 35 36 40 42 41 42 45 48 52 50 50 52 54 51 45 42 39 37 39 32
25 38 43 28 30 28 24 22 24 31 40 42 43 31 27 34 35 33 32 26 22 25 33 34 38 37 37 40 44 47 52 55 60 59 59 59 56 54 49 44 46 43 39
34 39 41 25 28 27 27 25 28 34 40 37 37 32 25 28 38 39 29 30 28 31 30 31 37 39 37 37 39 45 51 55 61 66 67 65 60 58 55 50 51 49 46
37 35 33 26 31 28 29 29 38 35 42 37 35 38 32 28 26 27 37 36 38 41 32 38 40 37 37 39 38 41 43 56 62 66 70 71 65 75 63 57 54 53 50
39 44 35 30 26 31 34 40 32 38 35 34 39 34 29 22 24 19 21 36 36 37 38 35 41 40 41 37 36 41 40 42 51 64 67 68 67 68 67 60 57 55 50
44 36 31 35 33 34 32 36 30 31 35 33 33 33 24 27 4 17 22 27 31 34 41 42 48 45 38 47 46 41 50 51 40 42 63 67 67 69 71 61 67 55 35
44 40 37 37 38 36 38 35 32 34 34 28 27 23 12 9 42 22 20 16 31 40 41 42 46 44 41 42 42 43 41 54 45 50 53 61 60 64 61 63 50 60 51
48 44 50 37 35 35 38 33 34 29 31 30 26 26 25 31 22 28 35 50 34 35 45 50 42 42 42 43 44 45 40 33 40 41 47 55 59 55 54 46 52 37 49
50 47 32 30 30 31 31 35 30 27 28 27 28 28 30 29 33 38 53 59 55 45 44 54 51 47 41 40 43 47 45 45 38 43 37 51 56 69 60 51 56 51 51
43 37 33 34 29 26 29 27 23 24 21 24 25 25 30 35 41 41 49 61 64 61 36 30 48 55 48 49 47 48 42 44 47 47 34 41 50 65 67 52 53 52 56
45 41 36 31 27 19 17 19 24 23 20 24 25 26 32 35 38 43 48 57 58 60 44 24 27 45 56 54 43 45 46 39 35 42 39 32 41 36 38 49 54 55 57
49 39 38 40 36 23 25 22 27 26 21 25 28 30 34 33 36 39 43 49 47 38 31 25 18 25 49 55 47 40 42 46 45 35 32 35 40 45 50 54 52 54 62
44 40 44 38 35 26 20 24 25 25 26 28 30 27 28 30 31 34 36 39 33 25 29 10 23 11 7 40 41 41 40 37 41 43 34 33 38 37 37 35 45 49 28
51 50 50 41 36 35 28 27 18 20 23 25 18 18 22 28 23 22 28 21 20 22 22 23 24 9 12 25 30 30 30 42 44 39 45 44 41 34 32 46 44 26 36
45 42 40 43 35 37 31 31 21 20 20 15 14 17 22 24 20 19 19 14 15 22 34 33 21 15 11 19 26 25 25 24 37 39 53 42 36 36 36 52 50 35 43
46 45 44 40 35 33 30 27 20 22 19 15 12 12 19 21 16 17 15 12 14 18 22 21 14 14 12 18 21 20 25 18 31 41 43 37 35 45 45 39 34 47 44
26 30 40 35 34 30 26 24 18 20 14 14 10 7 15 18 15 16 13 14 10 10 13 20 21 19 22 22 27 23 27 32 37 33 42 36 38 43 37 42 45 42 38
25 30 32 36 34 34 26 24 22 23 17 20 9 4 10 17 16 16 10 8 8 13 8 2 29 33 18 22 26 38 42 37 40 38 42 38 38 39 40 38 35 34 33
26 21 27 32 43 40 27 24 25 22 21 19 13 3 6 13 15 13 11 15 19 30 20 28 37 31 25 31 33 45 43 42 44 42 42 40 37 35 32 29 27 26 26
17 10 20 18 34 37 32 29 26 21 13 15 26 7 1 5 10 14 15 13 9 23 34 53 51 44 58 56 49 49 49 46 39 30 27 29 26 24 22 21 19 18 18
28 19 9 8 19 37 27 31 27 23 9 14 9 8 4 5 5 7 8 14 10 8 13 31 43 47 51 47 47 43 38 38 37 36 32 29 27 26 22 22 21 17 16
30 20 10 11 22 25 26 33 32 25 16 16 13 11 8 6 5 5 7 15 19 13 19 27 24 29 31 34 33 35 38 32 27 27 28 24 20 21 20 20 20 19 16
25 16 23 17 18 25 24 31 31 30 25 21 13 12 16 8 1 3 3 8 11 17 20 19 24 20 22 20 20 25 29 25 21 21 20 18 19 21 19 22 22 26 25
15 16 13 11 18 27 29 34 35 27 24 27 19 15 11 6 6 6 3 8 11 13 14 14 16 18 18 17 24 16 21 22 19 18 21 22 11 19 20 20 25 27 28
Wind_Direction_500mb
326 340 293 242 281 295 316 314 321 304 297 305 302 303 296 290 288 278 269 257 245 223 236 234 235 236 240 233 234 237 235 231 225 222 219 219 214 210 209 207 206 208 210
317 334 325 252 274 307 316 310 304 309 313 313 304 295 288 286 277 279 278 263 253 250 244 243 242 239 241 250 242 237 239 234 230 226 219 213 212 211 211 208 208 197 205
312 324 331 309 276 289 305 308 287 306 307 296 297 297 279 272 270 272 275 284 264 256 260 258 251 244 242 241 241 240 240 239 234 229 226 223 218 215 213 210 201 206 216
307 310 322 301 294 282 301 291 289 296 296 304 303 298 286 261 257 267 267 261 273 283 262 263 255 253 252 244 242 235 237 237 238 233 229 226 226 221 217 211 210 217 220
297 299 315 296 306 281 294 289 298 293 302 308 306 293 292 277 273 266 264 259 257 261 266 256 257 252 257 249 250 248 245 238 235 236 233 227 225 227 221 216 215 219 223
292 300 301 287 291 292 293 294 297 295 300 311 306 305 298 303 305 286 262 262 266 264 262 267 262 258 250 252 257 257 254 250 239 234 236 235 234 234 224 220 217 217 220
294 300 286 271 273 278 287 295 288 293 294 314 313 314 312 309 294 283 267 270 273 258 261 267 266 259 254 251 250 250 252 255 251 236 235 236 233 229 225 224 223 214 214
292 298 290 284 276 279 282 295 284 295 301 312 312 318 324 331 293 279 264 269 276 270 256 263 267 255 252 244 254 261 250 251 257 248 238 236 234 236 224 229 229 203 207
291 291 292 297 277 273 280 284 284 292 300 301 301 292 312 283 316 311 319 303 292 267 257 256 258 262 256 247 243 246 254 246 253 250 241 233 231 236 234 230 224 207 206
290 291 293 283 280 273 280 272 275 286 292 295 297 289 280 284 293 311 308 319 312 293 266 259 261 259 257 244 243 240 242 247 243 250 238 232 228 227 228 219 207 215 224
284 288 279 271 282 277 280 267 276 282 286 290 293 288 284 285 285 287 303 315 316 311 286 262 250 252 246 240 240 236 244 246 242 235 245 232 229 226 229 219 215 209 210
280 275 280 280 282 281 275 272 279 288 275 286 293 292 294 289 289 290 294 307 311 316 307 276 250 242 242 246 240 240 238 253 243 238 236 235 231 228 207 209 210 211 209
269 270 277 279 275 281 279 287 296 289 275 276 294 300 301 296 290 288 285 293 304 311 310 303 265 246 241 237 237 240 235 240 236 229 231 236 229 230 217 217 212 211 207
266 264 268 272 273 277 272 283 284 284 278 284 292 304 304 301 292 290 287 291 299 301 313 333 311 267 243 233 234 241 236 232 232 236 228 222 209 210 225 231 212 206 195
269 260 272 263 264 263 270 269 268 275 268 287 296 305 305 307 297 289 288 290 277 275 302 318 348 338 224 203 221 237 233 233 228 218 228 204 209 212 223 214 207 177 182
272 271 267 260 256 260 260 258 265 272 274 287 296 302 325 318 306 301 308 279 274 264 271 302 318 289 222 203 217 212 230 220 218 214 217 218 215 218 210 191 171 153 178
275 264 252 251 256 253 246 256 245 268 276 263 286 312 330 326 326 324 324 291 278 277 279 298 290 249 224 193 202 200 189 212 201 211 214 221 214 217 206 189 170 182 170
277 255 262 256 246 247 241 248 244 254 264 258 293 304 328 328 327 324 333 333 306 290 271 276 245 212 180 174 177 190 185 184 202 205 205 196 192 189 184 174 167 168 172
294 255 258 244 245 242 234 223 233 249 259 253 283 328 351 350 339 316 317 335 343 331 275 252 198 170 164 165 144 154 160 155 132 136 157 167 161 161 168 166 170 171 177
291 257 248 242 246 228 243 211 227 235 233 247 255 268 351 8 339 348 347 26 61 7 39 52 185 164 156 160 149 145 139 137 134 137 145 154 153 152 157 165 172 182 195
280 245 245 254 237 220 242 216 202 221 240 216 217 215 337 14 2 11 48 106 84 42 59 124 154 152 138 151 161 158 145 139 134 139 143 147 156 162 172 183 196 205 212
15 284 270 255 219 212 227 196 214 209 231 210 229 232 340 45 38 53 85 76 70 51 66 108 125 137 142 156 147 146 144 143 139 149 153 155 162 166 170 173 177 185 194
329 325 286 252 224 216 216 202 202 211 241 216 216 186 171 82 102 58 34 23 12 62 88 91 112 120 132 137 144 147 148 145 142 148 150 148 150 156 158 160 161 164 169
330 282 267 232 221 210 203 200 197 210 220 210 208 192 179 83 89 45 107 30 65 81 104 114 120 121 132 129 124 130 136 134 136 141 146 154 159 158 166 170 177 178 183
316 279 242 234 234 209 200 192 199 207 210 208 208 197 178 196 124 87 125 101 87 80 111 122 128 122 134 145 139 149 157 159 154 164 169 157 185 183 196 198 196 200 210
329 309 269 257 223 217 197 192 205 210 208 197 187 196 187 189 259 234 216 149 114 96 112 126 141 148 159 157 154 158 168 179 186 193 183 210 198 172 206 216 210 214 216
Wind_Speed_850mb
35 22 16 14 17 14 21 29 27 12 16 19 17 20 18 17 18 22 27 26 26 30 26 23 27 32 39 41 41 43 42 42 46 45 45 44 43 40 38 35 33 31 29
32 26 20 16 17 11 21 29 23 24 26 28 31 30 28 26 26 24 30 29 34 31 34 44 40 37 33 35 44 44 43 45 46 47 48 45 43 42 38 37 32 32 28
27 32 35 31 25 16 23 32 21 28 32 35 39 40 38 34 32 28 19 25 29 33 36 35 36 40 42 41 42 45 48 52 50 50 52 54 51 45 42 39 37 39 32
25 38 43 28 30 28 24 22 24 31 40 42 43 31 27 34 35 33 32 26 22 25 33 34 38 37 37 40 44 47 52 55 60 59 59 59 56 54 49 44 46 43 39
34 39 41 25 28 27 27 25 28 34 40 37 37 32 25 28 38 39 29 30 28 31 30 31 37 39 37 37 39 45 51 55 61 66 67 65 60 58 55 50 51 49 46
37 35 33 26 31 28 29 29 38 35 42 37 35 38 32 28 26 27 37 36 38 41 32 38 40 37 37 39 38 41 43 56 62 66 70 71 65 75 63 57 54 53 50
39 44 35 30 26 31 34 40 32 38 35 34 39 34 29 22 24 19 21 36 36 37 38 35 41 40 41 37 36 41 40 42 51 64 67 68 67 68 67 60 57 55 50
44 36 31 35 33 34 32 36 30 31 35 33 33 33 24 27 4 17 22 27 31 34 41 42 48 45 38 47 46 41 50 51 40 42 63 67 67 69 71 61 67 55 35
44 40 37 37 38 36 38 35 32 34 34 28 27 23 12 9 42 22 20 16 31 40 41 42 46 44 41 42 42 43 41 54 45 50 53 61 60 64 61 63 50 60 51
48 44 50 37 35 35 38 33 34 29 31 30 26 26 25 31 22 28 35 50 34 35 45 50 42 42 42 43 44 45 40 33 40 41 47 55 59 55 54 46 52 37 49
50 47 32 30 30 31 31 35 30 27 28 27 28 28 30 29 33 38 53 59 55 45 44 54 51 47 41 40 43 47 45 45 38 43 37 51 56 69 60 51 56 51 51
43 37 33 34 29 26 29 27 23 24 21 24 25 25 30 35 41 41 49 61 64 61 36 30 48 55 48 49 47 48 42 44 47 47 34 41 50 65 67 52 53 52 56
45 41 36 31 27 19 17 19 24 23 20 24 25 26 32 35 38 43 48 57 58 60 44 24 27 45 56 54 43 45 46 39 35 42 39 32 41 36 38 49 54 55 57
49 39 38 40 36 23 25 22 27 26 21 25 28 30 34 33 36 39 43 49 47 38 31 25 18 25 49 55 47 40 42 46 45 35 32 35 40 45 50 54 52 54 62
44 40 44 38 35 26 20 24 25 25 26 28 30 27 28 30 31 34 36 39 33 25 29 10 23 11 7 40 41 41 40 37 41 43 34 33 38 37 37 35 45 49 28
51 50 50 41 36 35 28 27 18 20 23 25 18 18 22 28 23 22 28 21 20 22 22 23 24 9 12 25 30 30 30 42 44 39 45 44 41 34 32 46 44 26 36
45 42 40 43 35 37 31 31 21 20 20 15 14 17 22 24 20 19 19 14 15 22 34 33 21 15 11 19 26 25 25 24 37 39 53 42 36 36 36 52 50 35 43
46 45 44 40 35 33 30 27 20 22 19 15 12 12 19 21 16 17 15 12 14 18 22 21 14 14 12 18 21 20 25 18 31 41 43 37 35 45 45 39 34 47 44
26 30 40 35 34 30 26 24 18 20 14 14 10 7 15 18 15 16 13 14 10 10 13 20 21 19 22 22 27 23 27 32 37 33 42 36 38 43 37 42 45 42 38
25 30 32 36 34 34 26 24 22 23 17 20 9 4 10 17 16 16 10 8 8 13 8 2 29 33 18 22 26 38 42 37 40 38 42 38 38 39 40 38 35 34 33
26 21 27 32 43 40 27 24 25 22 21 19 13 3 6 13 15 13 11 15 19 30 20 28 37 31 25 31 33 45 43 42 44 42 42 40 37 35 32 29 27 26 26
17 10 20 18 34 37 32 29 26 21 13 15 26 7 1 5 10 14 15 13 9 23 34 53 51 44 58 56 49 49 49 46 39 30 27 29 26 24 22 21 19 18 18
28 19 9 8 19 37 27 31 27 23 9 14 9 8 4 5 5 7 8 14 10 8 13 31 43 47 51 47 47 43 38 38 37 36 32 29 27 26 22 22 21 17 16
30 20 10 11 22 25 26 33 32 25 16 16 13 11 8 6 5 5 7 15 19 13 19 27 24 29 31 34 33 35 38 32 27 27 28 24 20 21 20 20 20 19 16
25 16 23 17 18 25 24 31 31 30 25 21 13 12 16 8 1 3 3 8 11 17 20 19 24 20 22 20 20 25 29 25 21 21 20 18 19 21 19 22 22 26 25
15 16 13 11 18 27 29 34 35 27 24 27 19 15 11 6 6 6 3 8 11 13 14 14 16 18 18 17 24 16 21 22 19 18 21 22 11 19 20 20 25 27 28
Wind_Direction_850mb
326 340 293 242 281 295 316 314 321 304 297 305 302 303 296 290 288 278 269 257 245 223 236 234 235 236 240 233 234 237 235 231 225 222 219 219 214 210 209 207 206 208 210
317 334 325 252 274 307 316 310 304 309 313 313 304 295 288 286 277 279 278 263 253 250 244 243 242 239 241 250 242 237 239 234 230 226 219 213 212 211 211 208 208 197 205
312 324 331 309 276 289 305 308 287 306 307 296 297 297 279 272 270 272 275 284 264 256 260 258 251 244 242 241 241 240 240 239 234 229 226 223 218 215 213 210 201 206 216
307 310 322 301 294 282 301 291 289 296 296 304 303 298 286 261 257 267 267 261 273 283 262 263 255 253 252 244 242 235 237 237 238 233 229 226 226 221 217 211 210 217 220
297 299 315 296 306 281 294 289 298 293 302 308 306 293 292 277 273 266 264 259 257 261 266 256 257 252 257 249 250 248 245 238 235 236 233 227 225 227 221 216 215 219 223
292 300 301 287 291 292 293 294 297 295 300 311 306 305 298 303 305 286 262 262 266 264 262 267 262 258 250 252 257 257 254 250 239 234 236 235 234 234 224 220 217 217 220
294 300 286 271 273 278 287 295 288 293 294 314 313 314 312 309 294 283 267 270 273 258 261 267 266 259 254 251 250 250 252 255 251 236 235 236 233 229 225 224 223 214 214
292 298 290 284 276 279 282 295 284 295 301 312 312 318 324 331 293 279 264 269 276 270 256 263 267 255 252 244 254 261 250 251 257 248 238 236 234 236 224 229 229 203 207
291 291 292 297 277 273 280 284 284 292 300 301 301 292 312 283 316 311 319 303 292 267 257 256 258 262 256 247 243 246 254 246 253 250 241 233 231 236 234 230 224 207 206
290 291 293 283 280 273 280 272 275 286 292 295 297 289 280 284 293 311 308 319 312 293 266 259 261 259 257 244 243 240 242 247 243 250 238 232 228 227 228 219 207 215 224
284 288 279 271 282 277 280 267 276 282 286 290 293 288 284 285 285 287 303 315 316 311 286 262 250 252 246 240 240 236 244 246 242 235 245 232 229 226 229 219 215 209 210
280 275 280 280 282 281 275 272 279 288 275 286 293 292 294 289 289 290 294 307 311 316 307 276 250 242 242 246 240 240 238 253 243 238 236 235 231 228 207 209 210 211 209
269 270 277 279 275 281 279 287 296 289 275 276 294 300 301 296 290 288 285 293 304 311 310 303 265 246 241 237 237 240 235 240 236 229 231 236 229 230 217 217 212 211 207
266 264 268 272 273 277 272 283 284 284 278 284 292 304 304 301 292 290 287 291 299 301 313 333 311 267 243 233 234 241 236 232 232 236 228 222 209 210 225 231 212 206 195
269 260 272 263 264 263 270 269 268 275 268 287 296 305 305 307 297 289 288 290 277 275 302 318 348 338 224 203 221 237 233 233 228 218 228 204 209 212 223 214 207 177 182
272 271 267 260 256 260 260 258 265 272 274 287 296 302 325 318 306 301 308 279 274 264 271 302 318 289 222 203 217 212 230 220 218 214 217 218 215 218 210 191 171 153 178
275 264 252 251 256 253 246 256 245 268 276 263 286 312 330 326 326 324 324 291 278 277 279 298 290 249 224 193 202 200 189 212 201 211 214 221 214 217 206 189 170 182 170
277 255 262 256 246 247 241 248 244 254 264 258 293 304 328 328 327 324 333 333 306 290 271 276 245 212 180 174 177 190 185 184 202 205 205 196 192 189 184 174 167 168 172
294 255 258 244 245 242 234 223 233 249 259 253 283 328 351 350 339 316 317 335 343 331 275 252 198 170 164 165 144 154 160 155 132 136 157 167 161 161 168 166 170 171 177
291 257 248 242 246 228 243 211 227 235 233 247 255 268 351 8 339 348 347 26 61 7 39 52 185 164 156 160 149 145 139 137 134 137 145 154 153 152 157 165 172 182 195
280 245 245 254 237 220 242 216 202 221 240 216 217 215 337 14 2 11 48 106 84 42 59 124 154 152 138 151 161 158 145 139 134 139 143 147 156 162 172 183 196 205 212
15 284 270 255 219 212 227 196 214 209 231 210 229 232 340 45 38 53 85 76 70 51 66 108 125 137 142 156 147 146 144 143 139 149 153 155 162 166 170 173 177 185 194
329 325 286 252 224 216 216 202 202 211 241 216 216 186 171 82 102 58 34 23 12 62 88 91 112 120 132 137 144 147 148 145 142 148 150 148 150 156 158 160 161 164 169
330 282 267 232 221 210 203 200 197 210 220 210 208 192 179 83 89 45 107 30 65 81 104 114 120 121 132 129 124 130 136 134 136 141 146 154 159 158 166 170 177 178 183
316 279 242 234 234 209 200 192 199 207 210 208 208 197 178 196 124 87 125 101 87 80 111 122 128 122 134 145 139 149 157 159 154 164 169 157 185 183 196 198 196 200 210
329 309 269 257 223 217 197 192 205 210 208 197 187 196 187 189 259 234 216 149 114 96 112 126 141 148 159 157 154 158 168 179 186 193 183 210 198 172 206 216 210 214 216